This is the latest recevied weather packets stored in our database for station/object KD8PH. If no packets are shown the sender has not sent any weather packets the latest 10 day(s).
| Time | Temp. | Humidity | Pressure | Rain* | Wind** | Luminosity | Snow |
|---|---|---|---|---|---|---|---|
| 1777304736 | 21.11° C | 77% | 1016.9 hPa | 0 mm | - | - | - |
| 1777304149 | 20.56° C | 76% | 1017 hPa | 0 mm | - | - | - |
| 1777303538 | 20.56° C | 75% | 1017 hPa | 0 mm | - | - | - |
| 1777302938 | 20° C | 78% | 1016.9 hPa | 0 mm | - | - | - |
| 1777302338 | 20° C | 78% | 1017 hPa | 0 mm | - | - | - |
| 1777301748 | 20° C | 78% | 1017.1 hPa | 0 mm | - | - | - |
| 1777301140 | 20° C | 78% | 1017 hPa | 0 mm | - | - | - |
| 1777300551 | 19.44° C | 77% | 1016.9 hPa | 0 mm | - | - | - |
| 1777299944 | 19.44° C | 78% | 1016.9 hPa | 0 mm | - | - | - |
| 1777299342 | 19.44° C | 80% | 1016.8 hPa | 0 mm | - | - | - |
| 1777298747 | 19.44° C | 81% | 1016.9 hPa | 0 mm | - | - | - |
| 1777298140 | 19.44° C | 79% | 1016.9 hPa | 0 mm | - | - | - |
| 1777297543 | 18.89° C | 80% | 1016.7 hPa | 0 mm | - | - | - |
| 1777296938 | 18.89° C | 81% | 1016.7 hPa | 0 mm | - | - | - |
| 1777296337 | 18.89° C | 81% | 1016.8 hPa | 0 mm | - | - | - |
| 1777295737 | 18.89° C | 80% | 1016.9 hPa | 0 mm | - | - | - |
| 1777295135 | 18.89° C | 82% | 1016.8 hPa | 0 mm | - | - | - |
| 1777294536 | 18.89° C | 81% | 1016.7 hPa | 0 mm | - | - | - |
| 1777293945 | 18.89° C | 81% | 1016.4 hPa | 0 mm | - | - | - |
| 1777293339 | 18.89° C | 81% | 1016.3 hPa | 0 mm | - | - | - |
| 1777292740 | 19.44° C | 81% | 1016.1 hPa | 0 mm | - | - | - |
| 1777292136 | 19.44° C | 81% | 1015.9 hPa | 0 mm | - | - | - |
| 1777291548 | 18.89° C | 82% | 1015.8 hPa | 0 mm | - | - | - |
| 1777290936 | 18.89° C | 82% | 1015.6 hPa | 0 mm | - | - | - |
| 1777290335 | 18.89° C | 82% | 1015.4 hPa | 0 mm | - | - | - |
* Rain latest hour (hover to see other rain measurements)
** Current wind speed in m/s (hover to see current wind gust speed)